Time,TemperatureF,DewpointF,PressureIn,WindDirection,WindDirectionDegrees,WindSpeedMPH,WindSpeedGustMPH,Humidity,HourlyPrecipIn,Conditions,Clouds,dailyrainin,SoftwareType,DateUTC
2013-01-01 00:02:00,15.0,7.0,-100.00,North,0,7.0,13.0,68,0.00,,,-99.99,,2013-01-01 06:02:00,
2013-01-01 00:12:00,15.0,7.0,-100.00,North,10,10.0,14.0,69,0.00,,,-99.99,,2013-01-01 06:12:00,
2013-01-01 00:22:00,15.0,7.0,-100.00,North,0,10.0,14.0,68,0.00,,,-99.99,,2013-01-01 06:22:00,
2013-01-01 00:32:00,15.0,7.0,-100.00,NNE,15,9.0,13.0,68,0.00,,,-99.99,,2013-01-01 06:32:00,
2013-01-01 00:42:00,15.0,6.0,-100.00,North,0,10.0,13.0,67,0.00,,,-99.99,,2013-01-01 06:42:00,
2013-01-01 00:52:00,14.0,6.0,-100.00,NNE,20,7.0,9.0,67,0.00,,,-99.99,,2013-01-01 06:52:00,
2013-01-01 01:02:00,14.0,6.0,-100.00,NNE,20,7.0,9.0,67,0.00,,,-99.99,,2013-01-01 07:02:00,
2013-01-01 01:12:00,14.0,6.0,-100.00,North,10,8.0,11.0,68,0.00,,,-99.99,,2013-01-01 07:12:00,
2013-01-01 01:22:00,14.0,5.0,-100.00,North,0,10.0,12.0,68,0.00,,,-99.99,,2013-01-01 07:22:00,
2013-01-01 01:32:00,13.0,5.0,-100.00,North,10,10.0,13.0,68,0.00,,,-99.99,,2013-01-01 07:32:00,
2013-01-01 01:42:00,13.0,5.0,-100.00,NNE,20,7.0,14.0,67,0.00,,,-99.99,,2013-01-01 07:42:00,
2013-01-01 01:52:00,13.0,4.0,-100.00,North,10,11.0,15.0,67,0.00,,,-99.99,,2013-01-01 07:52:00,
2013-01-01 02:02:00,13.0,4.0,-100.00,North,10,11.0,15.0,67,0.00,,,-99.99,,2013-01-01 08:02:00,
2013-01-01 02:11:00,12.0,4.0,-100.00,North,0,11.0,13.0,68,0.00,,,-99.99,,2013-01-01 08:11:00,
2013-01-01 02:22:00,12.0,4.0,-100.00,North,0,7.0,14.0,68,0.00,,,-99.99,,2013-01-01 08:22:00,
2013-01-01 02:32:00,11.0,3.0,-100.00,North,0,11.0,14.0,68,0.00,,,-99.99,,2013-01-01 08:32:00,
2013-01-01 02:42:00,11.0,3.0,-100.00,North,0,11.0,14.0,68,0.00,,,-99.99,,2013-01-01 08:42:00,
2013-01-01 02:53:00,11.0,3.0,-100.00,North,10,10.0,14.0,68,0.00,,,-99.99,,2013-01-01 08:53:00,
2013-01-01 03:02:00,11.0,3.0,-100.00,North,10,10.0,14.0,68,0.00,,,-99.99,,2013-01-01 09:02:00,
2013-01-01 03:12:00,10.0,2.0,-100.00,North,350,7.0,12.0,68,0.00,,,-99.99,,2013-01-01 09:12:00,
2013-01-01 03:22:00,10.0,2.0,-100.00,North,5,11.0,12.0,68,0.00,,,-99.99,,2013-01-01 09:22:00,
2013-01-01 03:32:00,10.0,1.0,-100.00,North,5,8.0,12.0,68,0.00,,,-99.99,,2013-01-01 09:32:00,
2013-01-01 03:42:00,9.0,1.0,-100.00,North,5,9.0,17.0,69,0.00,,,-99.99,,2013-01-01 09:42:00,
2013-01-01 03:52:00,8.0,1.0,-100.00,North,10,10.0,14.0,70,0.00,,,-99.99,,2013-01-01 09:52:00,
2013-01-01 04:02:00,8.0,1.0,-100.00,North,10,10.0,14.0,70,0.00,,,-99.99,,2013-01-01 10:02:00,
2013-01-01 04:12:00,8.0,0.0,-100.00,North,5,11.0,15.0,70,0.00,,,-99.99,,2013-01-01 10:12:00,
2013-01-01 04:22:00,8.0,0.0,-100.00,North,10,11.0,16.0,70,0.00,,,-99.99,,2013-01-01 10:22:00,
2013-01-01 04:42:00,7.0,0.0,-100.00,North,5,8.0,11.0,71,0.00,,,-99.99,,2013-01-01 10:42:00,
2013-01-01 04:52:00,7.0,0.0,-100.00,North,0,6.0,9.0,71,0.00,,,-99.99,,2013-01-01 10:52:00,
2013-01-01 05:02:00,7.0,0.0,-100.00,North,0,6.0,9.0,71,0.00,,,-99.99,,2013-01-01 11:02:00,
2013-01-01 05:12:00,6.0,-1.0,-100.00,North,5,9.0,12.0,72,0.00,,,-99.99,,2013-01-01 11:12:00,
2013-01-01 05:22:00,6.0,-1.0,-100.00,North,5,7.0,10.0,72,0.00,,,-99.99,,2013-01-01 11:22:00,
2013-01-01 05:32:00,6.0,-1.0,-100.00,North,10,6.0,10.0,72,0.00,,,-99.99,,2013-01-01 11:32:00,
2013-01-01 05:52:00,6.0,-1.0,-100.00,North,5,10.0,11.0,73,0.00,,,-99.99,,2013-01-01 11:52:00,
2013-01-01 06:02:00,6.0,-1.0,-100.00,North,5,10.0,11.0,73,0.00,,,-99.99,,2013-01-01 12:02:00,
2013-01-01 06:12:00,5.0,-1.0,-100.00,North,5,9.0,12.0,73,0.00,,,-99.99,,2013-01-01 12:12:00,
2013-01-01 06:22:00,5.0,-1.0,-100.00,North,5,9.0,12.0,73,0.00,,,-99.99,,2013-01-01 12:22:00,
2013-01-01 06:32:00,5.0,-2.0,-100.00,North,0,10.0,13.0,74,0.00,,,-99.99,,2013-01-01 12:32:00,
2013-01-01 06:42:00,5.0,-2.0,-100.00,North,0,10.0,13.0,74,0.00,,,-99.99,,2013-01-01 12:42:00,
2013-01-01 06:52:00,4.0,-2.0,-100.00,North,5,9.0,12.0,74,0.00,,,-99.99,,2013-01-01 12:52:00,
2013-01-01 07:02:00,4.0,-2.0,-100.00,North,5,9.0,12.0,74,0.00,,,-99.99,,2013-01-01 13:02:00,
2013-01-01 07:12:00,4.0,-2.0,-100.00,North,5,9.0,11.0,74,0.00,,,-99.99,,2013-01-01 13:12:00,
2013-01-01 07:22:00,4.0,-2.0,-100.00,North,5,9.0,13.0,74,0.00,,,-99.99,,2013-01-01 13:22:00,
2013-01-01 07:32:00,4.0,-2.0,-100.00,North,0,9.0,11.0,74,0.00,,,-99.99,,2013-01-01 13:32:00,
2013-01-01 07:42:00,4.0,-3.0,-100.00,North,5,7.0,10.0,74,0.00,,,-99.99,,2013-01-01 13:42:00,
2013-01-01 07:52:00,4.0,-3.0,-100.00,North,0,4.0,9.0,74,0.00,,,-99.99,,2013-01-01 13:52:00,
2013-01-01 08:02:00,4.0,-3.0,-100.00,North,0,4.0,9.0,74,0.00,,,-99.99,,2013-01-01 14:02:00,
2013-01-01 08:12:00,4.0,-2.0,-100.00,North,0,4.0,6.0,74,0.00,,,-99.99,,2013-01-01 14:12:00,
2013-01-01 08:22:00,4.0,-2.0,-100.00,North,355,4.0,6.0,74,0.00,,,-99.99,,2013-01-01 14:22:00,
2013-01-01 08:32:00,4.0,-2.0,-100.00,North,5,5.0,7.0,74,0.00,,,-99.99,,2013-01-01 14:32:00,
2013-01-01 08:42:00,5.0,-1.0,-100.00,North,355,5.0,7.0,73,0.00,,,-99.99,,2013-01-01 14:42:00,
2013-01-01 08:53:00,6.0,-1.0,-100.00,North,10,6.0,11.0,72,0.00,,,-99.99,,2013-01-01 14:53:00,
2013-01-01 09:03:00,6.0,-1.0,-100.00,North,10,6.0,11.0,72,0.00,,,-99.99,,2013-01-01 15:03:00,
2013-01-01 09:12:00,6.0,-1.0,-100.00,NNE,20,5.0,9.0,70,0.00,,,-99.99,,2013-01-01 15:12:00,
2013-01-01 09:22:00,7.0,-1.0,-100.00,North,5,6.0,8.0,69,0.00,,,-99.99,,2013-01-01 15:22:00,
2013-01-01 09:33:00,8.0,0.0,-100.00,North,10,4.0,7.0,68,0.00,,,-99.99,,2013-01-01 15:33:00,
2013-01-01 09:42:00,9.0,0.0,-100.00,NNE,25,3.0,5.0,66,0.00,,,-99.99,,2013-01-01 15:42:00,
2013-01-01 09:53:00,12.0,1.0,-100.00,NE,45,3.0,4.0,61,0.00,,,-99.99,,2013-01-01 15:53:00,
2013-01-01 10:02:00,12.0,1.0,-100.00,NE,45,3.0,4.0,61,0.00,,,-99.99,,2013-01-01 16:02:00,
2013-01-01 10:12:00,13.0,2.0,-100.00,NNE,20,3.0,6.0,58,0.00,,,-99.99,,2013-01-01 16:12:00,
2013-01-01 10:22:00,14.0,1.0,-100.00,NNE,30,2.0,6.0,56,0.00,,,-99.99,,2013-01-01 16:22:00,
2013-01-01 10:33:00,15.0,2.0,-100.00,NNE,25,2.0,5.0,55,0.00,,,-99.99,,2013-01-01 16:33:00,
2013-01-01 10:42:00,16.0,2.0,-100.00,NNE,15,4.0,6.0,52,0.00,,,-99.99,,2013-01-01 16:42:00,
2013-01-01 10:52:00,17.0,2.0,-100.00,NE,55,2.0,7.0,49,0.00,,,-99.99,,2013-01-01 16:52:00,
2013-01-01 11:02:00,17.0,2.0,-100.00,NE,55,2.0,7.0,49,0.00,,,-99.99,,2013-01-01 17:02:00,
2013-01-01 11:12:00,18.0,2.0,-100.00,NNE,15,2.0,6.0,48,0.00,,,-99.99,,2013-01-01 17:12:00,
2013-01-01 11:22:00,18.0,2.0,-100.00,North,5,2.0,6.0,47,0.00,,,-99.99,,2013-01-01 17:22:00,
2013-01-01 11:33:00,19.0,2.0,-100.00,NNE,20,2.0,5.0,46,0.00,,,-99.99,,2013-01-01 17:33:00,
2013-01-01 11:42:00,20.0,2.0,-100.00,East,90,0.0,5.0,45,0.00,,,-99.99,,2013-01-01 17:42:00,
2013-01-01 11:52:00,20.0,2.0,-100.00,North,5,3.0,6.0,43,0.00,,,-99.99,,2013-01-01 17:52:00,
2013-01-01 12:03:00,20.0,2.0,-100.00,North,5,3.0,6.0,43,0.00,,,-99.99,,2013-01-01 18:03:00,
2013-01-01 12:12:00,22.0,2.0,-100.00,NNE,20,2.0,6.0,41,0.00,,,-99.99,,2013-01-01 18:12:00,
2013-01-01 12:22:00,21.0,1.0,-100.00,NNE,30,4.0,6.0,40,0.00,,,-99.99,,2013-01-01 18:22:00,
2013-01-01 12:33:00,21.0,0.0,-100.00,NE,35,6.0,7.0,39,0.00,,,-99.99,,2013-01-01 18:33:00,
2013-01-01 12:42:00,22.0,1.0,-100.00,NNE,20,5.0,8.0,38,0.00,,,-99.99,,2013-01-01 18:42:00,
2013-01-01 12:52:00,23.0,0.0,-100.00,NNE,25,6.0,7.0,36,0.00,,,-99.99,,2013-01-01 18:52:00,
2013-01-01 13:02:00,23.0,0.0,-100.00,NNE,25,6.0,7.0,36,0.00,,,-99.99,,2013-01-01 19:02:00,
2013-01-01 13:12:00,24.0,0.0,-100.00,NE,50,4.0,6.0,35,0.00,,,-99.99,,2013-01-01 19:12:00,
2013-01-01 13:22:00,25.0,1.0,-100.00,NE,50,1.0,6.0,34,0.00,,,-99.99,,2013-01-01 19:22:00,
2013-01-01 13:32:00,25.0,0.0,-100.00,ENE,60,3.0,6.0,34,0.00,,,-99.99,,2013-01-01 19:32:00,
2013-01-01 13:42:00,25.0,1.0,-100.00,WSW,250,1.0,6.0,34,0.00,,,-99.99,,2013-01-01 19:42:00,
2013-01-01 13:52:00,25.0,1.0,-100.00,West,270,1.0,4.0,34,0.00,,,-99.99,,2013-01-01 19:52:00,
2013-01-01 14:02:00,25.0,1.0,-100.00,West,270,1.0,4.0,34,0.00,,,-99.99,,2013-01-01 20:02:00,
2013-01-01 14:12:00,25.0,1.0,-100.00,North,0,2.0,4.0,34,0.00,,,-99.99,,2013-01-01 20:12:00,
2013-01-01 14:22:00,24.0,0.0,-100.00,WNW,300,4.0,6.0,35,0.00,,,-99.99,,2013-01-01 20:22:00,
2013-01-01 14:32:00,22.0,0.0,-100.00,NW,320,4.0,7.0,36,0.00,,,-99.99,,2013-01-01 20:32:00,
2013-01-01 14:42:00,23.0,0.0,-100.00,West,265,6.0,8.0,36,0.00,,,-99.99,,2013-01-01 20:42:00,
2013-01-01 14:52:00,23.0,1.0,-100.00,West,275,4.0,7.0,37,0.00,,,-99.99,,2013-01-01 20:52:00,
2013-01-01 15:03:00,23.0,1.0,-100.00,West,275,4.0,7.0,37,0.00,,,-99.99,,2013-01-01 21:03:00,
2013-01-01 15:12:00,22.0,0.0,-100.00,West,280,5.0,8.0,37,0.00,,,-99.99,,2013-01-01 21:12:00,
2013-01-01 15:22:00,23.0,0.0,-100.00,West,270,4.0,8.0,36,0.00,,,-99.99,,2013-01-01 21:22:00,
2013-01-01 15:33:00,22.0,0.0,-100.00,West,275,6.0,7.0,36,0.00,,,-99.99,,2013-01-01 21:33:00,
2013-01-01 15:42:00,22.0,0.0,-100.00,West,270,7.0,9.0,36,0.00,,,-99.99,,2013-01-01 21:42:00,
2013-01-01 15:52:00,23.0,0.0,-100.00,West,275,4.0,6.0,36,0.00,,,-99.99,,2013-01-01 21:52:00,
2013-01-01 16:02:00,23.0,0.0,-100.00,West,275,4.0,6.0,36,0.00,,,-99.99,,2013-01-01 22:02:00,
2013-01-01 16:12:00,23.0,1.0,-100.00,WNW,290,6.0,7.0,37,0.00,,,-99.99,,2013-01-01 22:12:00,
2013-01-01 16:22:00,23.0,0.0,-100.00,West,270,6.0,7.0,37,0.00,,,-99.99,,2013-01-01 22:22:00,
2013-01-01 16:33:00,22.0,0.0,-100.00,WNW,290,5.0,7.0,37,0.00,,,-99.99,,2013-01-01 22:33:00,
2013-01-01 16:42:00,22.0,1.0,-100.00,WNW,295,4.0,6.0,38,0.00,,,-99.99,,2013-01-01 22:42:00,
2013-01-01 16:52:00,21.0,1.0,-100.00,WNW,295,2.0,4.0,39,0.00,,,-99.99,,2013-01-01 22:52:00,
2013-01-01 17:02:00,21.0,1.0,-100.00,WNW,295,2.0,4.0,39,0.00,,,-99.99,,2013-01-01 23:02:00,
2013-01-01 17:12:00,21.0,0.0,-100.00,NW,305,3.0,6.0,40,0.00,,,-99.99,,2013-01-01 23:12:00,
2013-01-01 17:22:00,20.0,0.0,-100.00,WNW,300,3.0,4.0,40,0.00,,,-99.99,,2013-01-01 23:22:00,
2013-01-01 17:32:00,20.0,0.0,-100.00,West,280,2.0,3.0,41,0.00,,,-99.99,,2013-01-01 23:32:00,
2013-01-01 17:42:00,19.0,0.0,-100.00,West,270,2.0,4.0,42,0.00,,,-99.99,,2013-01-01 23:42:00,
2013-01-01 17:52:00,18.0,0.0,-100.00,West,260,2.0,3.0,43,0.00,,,-99.99,,2013-01-01 23:52:00,
2013-01-01 18:02:00,18.0,0.0,-100.00,West,260,2.0,3.0,43,0.00,,,-99.99,,2013-01-02 00:02:00,
2013-01-01 18:12:00,18.0,0.0,-100.00,SW,235,2.0,3.0,44,0.00,,,-99.99,,2013-01-02 00:12:00,
2013-01-01 18:22:00,18.0,0.0,-100.00,SSW,210,2.0,3.0,44,0.00,,,-99.99,,2013-01-02 00:22:00,
2013-01-01 18:32:00,17.0,0.0,-100.00,SW,235,3.0,4.0,45,0.00,,,-99.99,,2013-01-02 00:32:00,
2013-01-01 18:42:00,17.0,0.0,-100.00,SW,235,4.0,7.0,46,0.00,,,-99.99,,2013-01-02 00:42:00,
2013-01-01 18:52:00,17.0,2.0,-100.00,SW,230,4.0,7.0,50,0.00,,,-99.99,,2013-01-02 00:52:00,
2013-01-01 19:02:00,17.0,2.0,-100.00,SW,230,4.0,7.0,50,0.00,,,-99.99,,2013-01-02 01:02:00,
2013-01-01 19:12:00,16.0,2.0,-100.00,SW,220,3.0,7.0,52,0.00,,,-99.99,,2013-01-02 01:12:00,
2013-01-01 19:22:00,16.0,2.0,-100.00,SW,220,4.0,6.0,53,0.00,,,-99.99,,2013-01-02 01:22:00,
2013-01-01 19:32:00,16.0,3.0,-100.00,SW,230,4.0,7.0,55,0.00,,,-99.99,,2013-01-02 01:32:00,
2013-01-01 19:42:00,15.0,4.0,-100.00,SW,235,4.0,7.0,58,0.00,,,-99.99,,2013-01-02 01:42:00,
2013-01-01 19:52:00,15.0,4.0,-100.00,SW,220,3.0,6.0,61,0.00,,,-99.99,,2013-01-02 01:52:00,
2013-01-01 20:02:00,15.0,4.0,-100.00,SW,220,3.0,6.0,61,0.00,,,-99.99,,2013-01-02 02:02:00,
2013-01-01 20:12:00,14.0,4.0,-100.00,SW,230,4.0,5.0,63,0.00,,,-99.99,,2013-01-02 02:12:00,
2013-01-01 20:22:00,14.0,4.0,-100.00,SSW,205,4.0,6.0,64,0.00,,,-99.99,,2013-01-02 02:22:00,
2013-01-01 20:32:00,14.0,4.0,-100.00,SSW,210,4.0,7.0,64,0.00,,,-99.99,,2013-01-02 02:32:00,
2013-01-01 20:42:00,13.0,4.0,-100.00,SW,235,4.0,6.0,64,0.00,,,-99.99,,2013-01-02 02:42:00,
2013-01-01 20:52:00,13.0,3.0,-100.00,SW,215,5.0,7.0,63,0.00,,,-99.99,,2013-01-02 02:52:00,
2013-01-01 21:02:00,13.0,3.0,-100.00,SW,215,5.0,7.0,63,0.00,,,-99.99,,2013-01-02 03:02:00,
2013-01-01 21:12:00,13.0,3.0,-100.00,SW,235,4.0,9.0,62,0.00,,,-99.99,,2013-01-02 03:12:00,
2013-01-01 21:22:00,13.0,3.0,-100.00,SW,225,3.0,7.0,63,0.00,,,-99.99,,2013-01-02 03:22:00,
2013-01-01 21:32:00,13.0,3.0,-100.00,SW,215,4.0,6.0,63,0.00,,,-99.99,,2013-01-02 03:32:00,
2013-01-01 21:42:00,13.0,3.0,-100.00,SW,220,5.0,7.0,63,0.00,,,-99.99,,2013-01-02 03:42:00,
2013-01-01 21:52:00,13.0,3.0,-100.00,SSW,200,6.0,9.0,64,0.00,,,-99.99,,2013-01-02 03:52:00,
2013-01-01 22:02:00,13.0,3.0,-100.00,SSW,200,6.0,9.0,64,0.00,,,-99.99,,2013-01-02 04:02:00,
2013-01-01 22:12:00,13.0,3.0,-100.00,SSW,210,4.0,7.0,64,0.00,,,-99.99,,2013-01-02 04:12:00,
2013-01-01 22:22:00,13.0,3.0,-100.00,SW,230,5.0,8.0,64,0.00,,,-99.99,,2013-01-02 04:22:00,
2013-01-01 22:32:00,13.0,3.0,-100.00,SSW,210,4.0,8.0,64,0.00,,,-99.99,,2013-01-02 04:32:00,
2013-01-01 22:42:00,13.0,3.0,-100.00,SW,230,5.0,7.0,64,0.00,,,-99.99,,2013-01-02 04:42:00,
2013-01-01 22:52:00,13.0,3.0,-100.00,SW,215,4.0,9.0,65,0.00,,,-99.99,,2013-01-02 04:52:00,
2013-01-01 23:03:00,13.0,3.0,-100.00,SW,215,4.0,9.0,65,0.00,,,-99.99,,2013-01-02 05:03:00,
2013-01-01 23:12:00,13.0,3.0,-100.00,SW,235,4.0,7.0,65,0.00,,,-99.99,,2013-01-02 05:12:00,
2013-01-01 23:22:00,12.0,3.0,-100.00,SW,220,5.0,7.0,65,0.00,,,-99.99,,2013-01-02 05:22:00,
2013-01-01 23:33:00,12.0,3.0,-100.00,SSW,205,5.0,7.0,65,0.00,,,-99.99,,2013-01-02 05:33:00,
2013-01-01 23:42:00,12.0,3.0,-100.00,SSW,205,5.0,7.0,65,0.00,,,-99.99,,2013-01-02 05:42:00,
2013-01-01 23:52:00,12.0,3.0,-100.00,SSW,210,6.0,9.0,65,0.00,,,-99.99,,2013-01-02 05:52:00,